owner,sensor,date,latitude,longitude,vertical_datum,sea_water_temperature,qcFlag 
DISL,ioos:station:DISL:MHPA:1,2008-02-01T00:00:00Z,30.6671,-87.9365,-0.9,12.57,2 
DISL,ioos:station:DISL:MHPA:1,2008-02-01T00:30:00Z,30.6671,-87.9365,-0.9,12.74,2 
DISL,ioos:station:DISL:MHPA:1,2008-02-01T01:00:00Z,30.6671,-87.9365,-0.9,12.77,2 
DISL,ioos:station:DISL:MHPA:1,2008-02-01T01:30:00Z,30.6671,-87.9365,-0.9,12.53,2 
DISL,ioos:station:DISL:MHPA:1,2008-02-01T02:00:00Z,30.6671,-87.9365,-0.9,12.51,2 
DISL,ioos:station:DISL:MHPA:1,2008-02-01T02:30:00Z,30.6671,-87.9365,-0.9,12.7,2 
DISL,ioos:station:DISL:MHPA:1,2008-02-01T03:00:00Z,30.6671,-87.9365,-0.9,12.81,2 
DISL,ioos:station:DISL:MHPA:1,2008-02-01T03:30:00Z,30.6671,-87.9365,-0.9,12.85,2 
DISL,ioos:station:DISL:MHPA:1,2008-02-01T04:00:00Z,30.6671,-87.9365,-0.9,12.84,2 
DISL,ioos:station:DISL:MHPA:1,2008-02-01T04:30:00Z,30.6671,-87.9365,-0.9,12.97,2 
DISL,ioos:station:DISL:MHPA:1,2008-02-01T05:00:00Z,30.6671,-87.9365,-0.9,12.94,2 
DISL,ioos:station:DISL:MHPA:1,2008-02-01T05:30:00Z,30.6671,-87.9365,-0.9,12.48,2 
DISL,ioos:station:DISL:MHPA:1,2008-02-01T06:00:00Z,30.6671,-87.9365,-0.9,13.01,2 
DISL,ioos:station:DISL:MHPA:1,2008-02-01T06:30:00Z,30.6671,-87.9365,-0.9,12.71,2 
DISL,ioos:station:DISL:MHPA:1,2008-02-01T07:00:00Z,30.6671,-87.9365,-0.9,12.89,2 
DISL,ioos:station:DISL:MHPA:1,2008-02-01T07:30:00Z,30.6671,-87.9365,-0.9,12.92,2 
DISL,ioos:station:DISL:MHPA:1,2008-02-01T08:00:00Z,30.6671,-87.9365,-0.9,12.8,2 
DISL,ioos:station:DISL:MHPA:1,2008-02-01T08:30:00Z,30.6671,-87.9365,-0.9,12.8,2 
DISL,ioos:station:DISL:MHPA:1,2008-02-01T09:00:00Z,30.6671,-87.9365,-0.9,12.86,2 
DISL,ioos:station:DISL:MHPA:1,2008-02-01T09:30:00Z,30.6671,-87.9365,-0.9,12.87,2 
DISL,ioos:station:DISL:MHPA:1,2008-02-01T10:00:00Z,30.6671,-87.9365,-0.9,12.41,2 
DISL,ioos:station:DISL:MHPA:1,2008-02-01T10:30:00Z,30.6671,-87.9365,-0.9,12.25,2 
DISL,ioos:station:DISL:MHPA:1,2008-02-01T11:00:00Z,30.6671,-87.9365,-0.9,12.25,2 
DISL,ioos:station:DISL:MHPA:1,2008-02-01T11:30:00Z,30.6671,-87.9365,-0.9,12.15,2 
DISL,ioos:station:DISL:MHPA:1,2008-02-01T12:00:00Z,30.6671,-87.9365,-0.9,12.0,2 
DISL,ioos:station:DISL:MHPA:1,2008-02-01T12:30:00Z,30.6671,-87.9365,-0.9,11.87,2 
DISL,ioos:station:DISL:MHPA:1,2008-02-01T13:00:00Z,30.6671,-87.9365,-0.9,11.8,2 
DISL,ioos:station:DISL:MHPA:1,2008-02-01T13:30:00Z,30.6671,-87.9365,-0.9,11.63,2 
DISL,ioos:station:DISL:MHPA:1,2008-02-01T14:00:00Z,30.6671,-87.9365,-0.9,11.63,2 
DISL,ioos:station:DISL:MHPA:1,2008-02-01T14:30:00Z,30.6671,-87.9365,-0.9,11.28,2 
DISL,ioos:station:DISL:MHPA:1,2008-02-01T15:00:00Z,30.6671,-87.9365,-0.9,11.25,2 
DISL,ioos:station:DISL:MHPA:1,2008-02-01T15:30:00Z,30.6671,-87.9365,-0.9,11.29,2 
DISL,ioos:station:DISL:MHPA:1,2008-02-01T16:00:00Z,30.6671,-87.9365,-0.9,11.33,2 
DISL,ioos:station:DISL:MHPA:1,2008-02-01T16:30:00Z,30.6671,-87.9365,-0.9,11.53,2 
DISL,ioos:station:DISL:MHPA:1,2008-02-01T17:00:00Z,30.6671,-87.9365,-0.9,11.59,2 
DISL,ioos:station:DISL:MHPA:1,2008-02-01T17:30:00Z,30.6671,-87.9365,-0.9,11.66,2 
DISL,ioos:station:DISL:MHPA:1,2008-02-01T18:00:00Z,30.6671,-87.9365,-0.9,11.67,2 
DISL,ioos:station:DISL:MHPA:1,2008-02-01T18:30:00Z,30.6671,-87.9365,-0.9,11.94,2 
DISL,ioos:station:DISL:MHPA:1,2008-02-01T19:00:00Z,30.6671,-87.9365,-0.9,11.89,2 
DISL,ioos:station:DISL:MHPA:1,2008-02-01T19:30:00Z,30.6671,-87.9365,-0.9,11.8,2 
DISL,ioos:station:DISL:MHPA:1,2008-02-01T20:00:00Z,30.6671,-87.9365,-0.9,12.33,2 
DISL,ioos:station:DISL:MHPA:1,2008-02-01T20:30:00Z,30.6671,-87.9365,-0.9,12.22,2 
DISL,ioos:station:DISL:MHPA:1,2008-02-01T21:00:00Z,30.6671,-87.9365,-0.9,12.55,2 
DISL,ioos:station:DISL:MHPA:1,2008-02-01T21:30:00Z,30.6671,-87.9365,-0.9,13.2,2 
DISL,ioos:station:DISL:MHPA:1,2008-02-01T22:00:00Z,30.6671,-87.9365,-0.9,13.35,2 
DISL,ioos:station:DISL:MHPA:1,2008-02-01T22:30:00Z,30.6671,-87.9365,-0.9,13.38,2 
DISL,ioos:station:DISL:MHPA:1,2008-02-01T23:00:00Z,30.6671,-87.9365,-0.9,13.28,2 
DISL,ioos:station:DISL:MHPA:1,2008-02-01T23:30:00Z,30.6671,-87.9365,-0.9,12.55,2 
DISL,ioos:station:DISL:MHPA:1,2008-02-02T00:00:00Z,30.6671,-87.9365,-0.9,12.79,2 
DISL,ioos:station:DISL:MHPA:1,2008-02-02T00:30:00Z,30.6671,-87.9365,-0.9,12.99,2 
DISL,ioos:station:DISL:MHPA:1,2008-02-02T01:00:00Z,30.6671,-87.9365,-0.9,13.14,2 
DISL,ioos:station:DISL:MHPA:1,2008-02-02T01:30:00Z,30.6671,-87.9365,-0.9,13.1,2 
DISL,ioos:station:DISL:MHPA:1,2008-02-02T02:00:00Z,30.6671,-87.9365,-0.9,13.24,2 
DISL,ioos:station:DISL:MHPA:1,2008-02-02T02:30:00Z,30.6671,-87.9365,-0.9,13.09,2 
DISL,ioos:station:DISL:MHPA:1,2008-02-02T03:00:00Z,30.6671,-87.9365,-0.9,12.8,2 
DISL,ioos:station:DISL:MHPA:1,2008-02-02T03:30:00Z,30.6671,-87.9365,-0.9,12.86,2 
DISL,ioos:station:DISL:MHPA:1,2008-02-02T04:00:00Z,30.6671,-87.9365,-0.9,12.71,2 
DISL,ioos:station:DISL:MHPA:1,2008-02-02T04:30:00Z,30.6671,-87.9365,-0.9,12.71,2 
DISL,ioos:station:DISL:MHPA:1,2008-02-02T05:00:00Z,30.6671,-87.9365,-0.9,12.84,2 
DISL,ioos:station:DISL:MHPA:1,2008-02-02T05:30:00Z,30.6671,-87.9365,-0.9,12.9,2 
DISL,ioos:station:DISL:MHPA:1,2008-02-02T06:00:00Z,30.6671,-87.9365,-0.9,12.95,2 
DISL,ioos:station:DISL:MHPA:1,2008-02-02T06:30:00Z,30.6671,-87.9365,-0.9,13.0,2 
DISL,ioos:station:DISL:MHPA:1,2008-02-02T07:00:00Z,30.6671,-87.9365,-0.9,13.06,2 
DISL,ioos:station:DISL:MHPA:1,2008-02-02T07:30:00Z,30.6671,-87.9365,-0.9,13.11,2 
DISL,ioos:station:DISL:MHPA:1,2008-02-02T08:00:00Z,30.6671,-87.9365,-0.9,13.09,2 
DISL,ioos:station:DISL:MHPA:1,2008-02-02T08:30:00Z,30.6671,-87.9365,-0.9,13.09,2 
DISL,ioos:station:DISL:MHPA:1,2008-02-02T09:00:00Z,30.6671,-87.9365,-0.9,13.09,2 
DISL,ioos:station:DISL:MHPA:1,2008-02-02T09:30:00Z,30.6671,-87.9365,-0.9,13.11,2 
DISL,ioos:station:DISL:MHPA:1,2008-02-02T10:00:00Z,30.6671,-87.9365,-0.9,13.1,2 
DISL,ioos:station:DISL:MHPA:1,2008-02-02T10:30:00Z,30.6671,-87.9365,-0.9,13.09,2 
DISL,ioos:station:DISL:MHPA:1,2008-02-02T11:00:00Z,30.6671,-87.9365,-0.9,13.12,2 
DISL,ioos:station:DISL:MHPA:1,2008-02-02T11:30:00Z,30.6671,-87.9365,-0.9,13.12,2 
DISL,ioos:station:DISL:MHPA:1,2008-02-02T12:00:00Z,30.6671,-87.9365,-0.9,13.11,2 
DISL,ioos:station:DISL:MHPA:1,2008-02-02T12:30:00Z,30.6671,-87.9365,-0.9,13.1,2 
DISL,ioos:station:DISL:MHPA:1,2008-02-02T13:00:00Z,30.6671,-87.9365,-0.9,13.06,2 
DISL,ioos:station:DISL:MHPA:1,2008-02-02T13:30:00Z,30.6671,-87.9365,-0.9,13.01,2 
DISL,ioos:station:DISL:MHPA:1,2008-02-02T14:00:00Z,30.6671,-87.9365,-0.9,13.0,2 
DISL,ioos:station:DISL:MHPA:1,2008-02-02T14:30:00Z,30.6671,-87.9365,-0.9,13.04,2 
DISL,ioos:station:DISL:MHPA:1,2008-02-02T15:00:00Z,30.6671,-87.9365,-0.9,12.39,2 
DISL,ioos:station:DISL:MHPA:1,2008-02-02T15:30:00Z,30.6671,-87.9365,-0.9,12.88,2 
DISL,ioos:station:DISL:MHPA:1,2008-02-02T16:00:00Z,30.6671,-87.9365,-0.9,12.9,2 
DISL,ioos:station:DISL:MHPA:1,2008-02-02T16:30:00Z,30.6671,-87.9365,-0.9,12.86,2 
DISL,ioos:station:DISL:MHPA:1,2008-02-02T17:00:00Z,30.6671,-87.9365,-0.9,12.83,2 
DISL,ioos:station:DISL:MHPA:1,2008-02-02T17:30:00Z,30.6671,-87.9365,-0.9,12.8,2 
DISL,ioos:station:DISL:MHPA:1,2008-02-02T18:00:00Z,30.6671,-87.9365,-0.9,12.93,2 
DISL,ioos:station:DISL:MHPA:1,2008-02-02T18:30:00Z,30.6671,-87.9365,-0.9,12.95,2 
DISL,ioos:station:DISL:MHPA:1,2008-02-02T19:00:00Z,30.6671,-87.9365,-0.9,12.96,2 
DISL,ioos:station:DISL:MHPA:1,2008-02-02T19:30:00Z,30.6671,-87.9365,-0.9,12.96,2 
DISL,ioos:station:DISL:MHPA:1,2008-02-02T20:00:00Z,30.6671,-87.9365,-0.9,12.96,2 
DISL,ioos:station:DISL:MHPA:1,2008-02-02T20:30:00Z,30.6671,-87.9365,-0.9,12.96,2 
DISL,ioos:station:DISL:MHPA:1,2008-02-02T21:00:00Z,30.6671,-87.9365,-0.9,12.96,2 
DISL,ioos:station:DISL:MHPA:1,2008-02-02T21:30:00Z,30.6671,-87.9365,-0.9,13.02,2 
DISL,ioos:station:DISL:MHPA:1,2008-02-02T22:00:00Z,30.6671,-87.9365,-0.9,13.0,2 
DISL,ioos:station:DISL:MHPA:1,2008-02-02T22:30:00Z,30.6671,-87.9365,-0.9,13.02,2 
DISL,ioos:station:DISL:MHPA:1,2008-02-02T23:00:00Z,30.6671,-87.9365,-0.9,13.05,2 
DISL,ioos:station:DISL:MHPA:1,2008-02-02T23:30:00Z,30.6671,-87.9365,-0.9,13.04,2 
DISL,ioos:station:DISL:MHPA:1,2008-02-03T00:00:00Z,30.6671,-87.9365,-0.9,13.02,2 
DISL,ioos:station:DISL:MHPA:1,2008-02-03T00:30:00Z,30.6671,-87.9365,-0.9,13.02,2 
DISL,ioos:station:DISL:MHPA:1,2008-02-03T01:00:00Z,30.6671,-87.9365,-0.9,13.03,2 
DISL,ioos:station:DISL:MHPA:1,2008-02-03T01:30:00Z,30.6671,-87.9365,-0.9,13.07,2 
DISL,ioos:station:DISL:MHPA:1,2008-02-03T02:00:00Z,30.6671,-87.9365,-0.9,13.02,2 
DISL,ioos:station:DISL:MHPA:1,2008-02-03T02:30:00Z,30.6671,-87.9365,-0.9,13.02,2 
DISL,ioos:station:DISL:MHPA:1,2008-02-03T03:00:00Z,30.6671,-87.9365,-0.9,13.03,2 
DISL,ioos:station:DISL:MHPA:1,2008-02-03T03:30:00Z,30.6671,-87.9365,-0.9,13.1,2 
DISL,ioos:station:DISL:MHPA:1,2008-02-03T04:00:00Z,30.6671,-87.9365,-0.9,13.22,2 
DISL,ioos:station:DISL:MHPA:1,2008-02-03T04:30:00Z,30.6671,-87.9365,-0.9,13.27,2 
DISL,ioos:station:DISL:MHPA:1,2008-02-03T05:00:00Z,30.6671,-87.9365,-0.9,13.24,2 
DISL,ioos:station:DISL:MHPA:1,2008-02-03T05:30:00Z,30.6671,-87.9365,-0.9,13.15,2 
DISL,ioos:station:DISL:MHPA:1,2008-02-03T06:00:00Z,30.6671,-87.9365,-0.9,13.14,2 
DISL,ioos:station:DISL:MHPA:1,2008-02-03T06:30:00Z,30.6671,-87.9365,-0.9,13.21,2 
DISL,ioos:station:DISL:MHPA:1,2008-02-03T07:00:00Z,30.6671,-87.9365,-0.9,13.25,2 
DISL,ioos:station:DISL:MHPA:1,2008-02-03T07:30:00Z,30.6671,-87.9365,-0.9,13.22,2 
DISL,ioos:station:DISL:MHPA:1,2008-02-03T08:00:00Z,30.6671,-87.9365,-0.9,13.24,2 
DISL,ioos:station:DISL:MHPA:1,2008-02-03T08:30:00Z,30.6671,-87.9365,-0.9,13.25,2 
DISL,ioos:station:DISL:MHPA:1,2008-02-03T09:00:00Z,30.6671,-87.9365,-0.9,13.23,2 
DISL,ioos:station:DISL:MHPA:1,2008-02-03T09:30:00Z,30.6671,-87.9365,-0.9,13.23,2 
DISL,ioos:station:DISL:MHPA:1,2008-02-03T10:00:00Z,30.6671,-87.9365,-0.9,13.26,2 
DISL,ioos:station:DISL:MHPA:1,2008-02-03T10:30:00Z,30.6671,-87.9365,-0.9,13.23,2 
DISL,ioos:station:DISL:MHPA:1,2008-02-03T11:00:00Z,30.6671,-87.9365,-0.9,13.31,2 
DISL,ioos:station:DISL:MHPA:1,2008-02-03T11:30:00Z,30.6671,-87.9365,-0.9,13.22,2 
DISL,ioos:station:DISL:MHPA:1,2008-02-03T12:00:00Z,30.6671,-87.9365,-0.9,13.16,2 
DISL,ioos:station:DISL:MHPA:1,2008-02-03T12:30:00Z,30.6671,-87.9365,-0.9,13.1,2 
DISL,ioos:station:DISL:MHPA:1,2008-02-03T13:00:00Z,30.6671,-87.9365,-0.9,13.16,2 
DISL,ioos:station:DISL:MHPA:1,2008-02-03T13:30:00Z,30.6671,-87.9365,-0.9,13.15,2 
DISL,ioos:station:DISL:MHPA:1,2008-02-03T14:00:00Z,30.6671,-87.9365,-0.9,13.15,2 
DISL,ioos:station:DISL:MHPA:1,2008-02-03T14:30:00Z,30.6671,-87.9365,-0.9,13.14,2 
DISL,ioos:station:DISL:MHPA:1,2008-02-03T15:00:00Z,30.6671,-87.9365,-0.9,13.08,2 
DISL,ioos:station:DISL:MHPA:1,2008-02-03T15:30:00Z,30.6671,-87.9365,-0.9,12.9,2 
DISL,ioos:station:DISL:MHPA:1,2008-02-03T16:00:00Z,30.6671,-87.9365,-0.9,12.98,2 
DISL,ioos:station:DISL:MHPA:1,2008-02-03T16:30:00Z,30.6671,-87.9365,-0.9,12.96,2 
DISL,ioos:station:DISL:MHPA:1,2008-02-03T17:00:00Z,30.6671,-87.9365,-0.9,13.26,2 
DISL,ioos:station:DISL:MHPA:1,2008-02-03T17:30:00Z,30.6671,-87.9365,-0.9,13.56,2 
DISL,ioos:station:DISL:MHPA:1,2008-02-03T18:00:00Z,30.6671,-87.9365,-0.9,13.44,2 
DISL,ioos:station:DISL:MHPA:1,2008-02-03T18:30:00Z,30.6671,-87.9365,-0.9,13.72,2 
DISL,ioos:station:DISL:MHPA:1,2008-02-03T19:00:00Z,30.6671,-87.9365,-0.9,14.45,2 
DISL,ioos:station:DISL:MHPA:1,2008-02-03T19:30:00Z,30.6671,-87.9365,-0.9,14.6,2 
DISL,ioos:station:DISL:MHPA:1,2008-02-03T20:00:00Z,30.6671,-87.9365,-0.9,14.81,2 
DISL,ioos:station:DISL:MHPA:1,2008-02-03T20:30:00Z,30.6671,-87.9365,-0.9,14.99,2 
DISL,ioos:station:DISL:MHPA:1,2008-02-03T21:00:00Z,30.6671,-87.9365,-0.9,15.13,2 
DISL,ioos:station:DISL:MHPA:1,2008-02-03T21:30:00Z,30.6671,-87.9365,-0.9,15.23,2 
DISL,ioos:station:DISL:MHPA:1,2008-02-03T22:00:00Z,30.6671,-87.9365,-0.9,14.98,2 
DISL,ioos:station:DISL:MHPA:1,2008-02-03T22:30:00Z,30.6671,-87.9365,-0.9,16.16,2 
DISL,ioos:station:DISL:MHPA:1,2008-02-03T23:00:00Z,30.6671,-87.9365,-0.9,16.13,2 
DISL,ioos:station:DISL:MHPA:1,2008-02-03T23:30:00Z,30.6671,-87.9365,-0.9,15.07,2 
DISL,ioos:station:DISL:MHPA:1,2008-02-04T00:00:00Z,30.6671,-87.9365,-0.9,16.17,2 
DISL,ioos:station:DISL:MHPA:1,2008-02-04T00:30:00Z,30.6671,-87.9365,-0.9,15.98,2 
DISL,ioos:station:DISL:MHPA:1,2008-02-04T01:00:00Z,30.6671,-87.9365,-0.9,16.05,2 
DISL,ioos:station:DISL:MHPA:1,2008-02-04T01:30:00Z,30.6671,-87.9365,-0.9,16.05,2 
DISL,ioos:station:DISL:MHPA:1,2008-02-04T02:00:00Z,30.6671,-87.9365,-0.9,16.13,2 
DISL,ioos:station:DISL:MHPA:1,2008-02-04T02:30:00Z,30.6671,-87.9365,-0.9,16.13,2 
DISL,ioos:station:DISL:MHPA:1,2008-02-04T03:00:00Z,30.6671,-87.9365,-0.9,16.42,2 
DISL,ioos:station:DISL:MHPA:1,2008-02-04T03:30:00Z,30.6671,-87.9365,-0.9,16.17,2 
DISL,ioos:station:DISL:MHPA:1,2008-02-04T04:00:00Z,30.6671,-87.9365,-0.9,16.32,2 
DISL,ioos:station:DISL:MHPA:1,2008-02-04T04:30:00Z,30.6671,-87.9365,-0.9,16.46,2 
DISL,ioos:station:DISL:MHPA:1,2008-02-04T05:00:00Z,30.6671,-87.9365,-0.9,16.31,2 
DISL,ioos:station:DISL:MHPA:1,2008-02-04T05:30:00Z,30.6671,-87.9365,-0.9,16.28,2 
DISL,ioos:station:DISL:MHPA:1,2008-02-04T06:00:00Z,30.6671,-87.9365,-0.9,16.27,2 
DISL,ioos:station:DISL:MHPA:1,2008-02-04T06:30:00Z,30.6671,-87.9365,-0.9,16.16,2 
DISL,ioos:station:DISL:MHPA:1,2008-02-04T07:00:00Z,30.6671,-87.9365,-0.9,16.15,2 
DISL,ioos:station:DISL:MHPA:1,2008-02-04T07:30:00Z,30.6671,-87.9365,-0.9,16.18,2 
DISL,ioos:station:DISL:MHPA:1,2008-02-04T08:00:00Z,30.6671,-87.9365,-0.9,16.04,2 
DISL,ioos:station:DISL:MHPA:1,2008-02-04T08:30:00Z,30.6671,-87.9365,-0.9,16.06,2 
DISL,ioos:station:DISL:MHPA:1,2008-02-04T09:00:00Z,30.6671,-87.9365,-0.9,15.98,2 
DISL,ioos:station:DISL:MHPA:1,2008-02-04T09:30:00Z,30.6671,-87.9365,-0.9,16.07,2 
DISL,ioos:station:DISL:MHPA:1,2008-02-04T10:00:00Z,30.6671,-87.9365,-0.9,15.88,2 
DISL,ioos:station:DISL:MHPA:1,2008-02-04T10:30:00Z,30.6671,-87.9365,-0.9,15.87,2 
DISL,ioos:station:DISL:MHPA:1,2008-02-04T11:00:00Z,30.6671,-87.9365,-0.9,15.88,2 
DISL,ioos:station:DISL:MHPA:1,2008-02-04T11:30:00Z,30.6671,-87.9365,-0.9,15.95,2 
DISL,ioos:station:DISL:MHPA:1,2008-02-04T12:00:00Z,30.6671,-87.9365,-0.9,15.98,2 
DISL,ioos:station:DISL:MHPA:1,2008-02-04T12:30:00Z,30.6671,-87.9365,-0.9,16.01,2 
DISL,ioos:station:DISL:MHPA:1,2008-02-04T13:00:00Z,30.6671,-87.9365,-0.9,15.73,2 
DISL,ioos:station:DISL:MHPA:1,2008-02-04T13:30:00Z,30.6671,-87.9365,-0.9,15.91,2 
DISL,ioos:station:DISL:MHPA:1,2008-02-04T14:00:00Z,30.6671,-87.9365,-0.9,15.62,2 
DISL,ioos:station:DISL:MHPA:1,2008-02-04T14:30:00Z,30.6671,-87.9365,-0.9,15.55,2 
DISL,ioos:station:DISL:MHPA:1,2008-02-04T15:00:00Z,30.6671,-87.9365,-0.9,15.67,2 
DISL,ioos:station:DISL:MHPA:1,2008-02-04T15:30:00Z,30.6671,-87.9365,-0.9,15.59,2 
DISL,ioos:station:DISL:MHPA:1,2008-02-04T16:00:00Z,30.6671,-87.9365,-0.9,15.46,2 
DISL,ioos:station:DISL:MHPA:1,2008-02-04T16:30:00Z,30.6671,-87.9365,-0.9,15.73,2 
DISL,ioos:station:DISL:MHPA:1,2008-02-04T17:00:00Z,30.6671,-87.9365,-0.9,15.44,2 
DISL,ioos:station:DISL:MHPA:1,2008-02-04T17:30:00Z,30.6671,-87.9365,-0.9,15.72,2 
DISL,ioos:station:DISL:MHPA:1,2008-02-04T18:00:00Z,30.6671,-87.9365,-0.9,17.32,2 
DISL,ioos:station:DISL:MHPA:1,2008-02-04T18:30:00Z,30.6671,-87.9365,-0.9,16.06,2 
DISL,ioos:station:DISL:MHPA:1,2008-02-04T19:00:00Z,30.6671,-87.9365,-0.9,17.26,2 
DISL,ioos:station:DISL:MHPA:1,2008-02-04T19:30:00Z,30.6671,-87.9365,-0.9,17.17,2 
DISL,ioos:station:DISL:MHPA:1,2008-02-04T20:00:00Z,30.6671,-87.9365,-0.9,17.53,2 
DISL,ioos:station:DISL:MHPA:1,2008-02-04T20:30:00Z,30.6671,-87.9365,-0.9,18.49,2 
DISL,ioos:station:DISL:MHPA:1,2008-02-04T21:00:00Z,30.6671,-87.9365,-0.9,18.71,2 
DISL,ioos:station:DISL:MHPA:1,2008-02-04T21:30:00Z,30.6671,-87.9365,-0.9,18.64,2 
DISL,ioos:station:DISL:MHPA:1,2008-02-04T22:00:00Z,30.6671,-87.9365,-0.9,18.72,2 
DISL,ioos:station:DISL:MHPA:1,2008-02-04T22:30:00Z,30.6671,-87.9365,-0.9,18.33,2 
DISL,ioos:station:DISL:MHPA:1,2008-02-04T23:00:00Z,30.6671,-87.9365,-0.9,18.12,2 
DISL,ioos:station:DISL:MHPA:1,2008-02-04T23:30:00Z,30.6671,-87.9365,-0.9,18.32,2 
DISL,ioos:station:DISL:MHPA:1,2008-02-05T00:00:00Z,30.6671,-87.9365,-0.9,18.53,2 
DISL,ioos:station:DISL:MHPA:1,2008-02-05T00:30:00Z,30.6671,-87.9365,-0.9,18.43,2 
DISL,ioos:station:DISL:MHPA:1,2008-02-05T01:00:00Z,30.6671,-87.9365,-0.9,18.53,2 
DISL,ioos:station:DISL:MHPA:1,2008-02-05T01:30:00Z,30.6671,-87.9365,-0.9,18.45,2 
DISL,ioos:station:DISL:MHPA:1,2008-02-05T02:00:00Z,30.6671,-87.9365,-0.9,18.3,2 
DISL,ioos:station:DISL:MHPA:1,2008-02-05T02:30:00Z,30.6671,-87.9365,-0.9,18.3,2 
DISL,ioos:station:DISL:MHPA:1,2008-02-05T03:00:00Z,30.6671,-87.9365,-0.9,18.1,2 
DISL,ioos:station:DISL:MHPA:1,2008-02-05T03:30:00Z,30.6671,-87.9365,-0.9,17.88,2 
DISL,ioos:station:DISL:MHPA:1,2008-02-05T04:00:00Z,30.6671,-87.9365,-0.9,17.34,2 
DISL,ioos:station:DISL:MHPA:1,2008-02-05T04:30:00Z,30.6671,-87.9365,-0.9,17.88,2 
DISL,ioos:station:DISL:MHPA:1,2008-02-05T05:00:00Z,30.6671,-87.9365,-0.9,17.86,2 
DISL,ioos:station:DISL:MHPA:1,2008-02-05T05:30:00Z,30.6671,-87.9365,-0.9,18.01,2 
DISL,ioos:station:DISL:MHPA:1,2008-02-05T06:00:00Z,30.6671,-87.9365,-0.9,17.69,2 
DISL,ioos:station:DISL:MHPA:1,2008-02-05T06:30:00Z,30.6671,-87.9365,-0.9,17.91,2 
DISL,ioos:station:DISL:MHPA:1,2008-02-05T07:00:00Z,30.6671,-87.9365,-0.9,17.89,2 
DISL,ioos:station:DISL:MHPA:1,2008-02-05T07:30:00Z,30.6671,-87.9365,-0.9,17.87,2 
DISL,ioos:station:DISL:MHPA:1,2008-02-05T08:00:00Z,30.6671,-87.9365,-0.9,17.91,2 
DISL,ioos:station:DISL:MHPA:1,2008-02-05T08:30:00Z,30.6671,-87.9365,-0.9,18.26,2 
DISL,ioos:station:DISL:MHPA:1,2008-02-05T09:00:00Z,30.6671,-87.9365,-0.9,18.21,2 
DISL,ioos:station:DISL:MHPA:1,2008-02-05T09:30:00Z,30.6671,-87.9365,-0.9,18.23,2 
DISL,ioos:station:DISL:MHPA:1,2008-02-05T10:00:00Z,30.6671,-87.9365,-0.9,18.17,2 
DISL,ioos:station:DISL:MHPA:1,2008-02-05T10:30:00Z,30.6671,-87.9365,-0.9,18.23,2 
DISL,ioos:station:DISL:MHPA:1,2008-02-05T11:00:00Z,30.6671,-87.9365,-0.9,18.13,2 
DISL,ioos:station:DISL:MHPA:1,2008-02-05T11:30:00Z,30.6671,-87.9365,-0.9,18.15,2 
DISL,ioos:station:DISL:MHPA:1,2008-02-05T12:00:00Z,30.6671,-87.9365,-0.9,18.1,2 
DISL,ioos:station:DISL:MHPA:1,2008-02-05T12:30:00Z,30.6671,-87.9365,-0.9,18.17,2 
DISL,ioos:station:DISL:MHPA:1,2008-02-05T13:00:00Z,30.6671,-87.9365,-0.9,18.18,2 
DISL,ioos:station:DISL:MHPA:1,2008-02-05T13:30:00Z,30.6671,-87.9365,-0.9,18.2,2 
DISL,ioos:station:DISL:MHPA:1,2008-02-05T14:00:00Z,30.6671,-87.9365,-0.9,18.25,2 
DISL,ioos:station:DISL:MHPA:1,2008-02-05T14:30:00Z,30.6671,-87.9365,-0.9,18.3,2 
DISL,ioos:station:DISL:MHPA:1,2008-02-05T15:00:00Z,30.6671,-87.9365,-0.9,18.35,2 
DISL,ioos:station:DISL:MHPA:1,2008-02-05T15:30:00Z,30.6671,-87.9365,-0.9,18.37,2 
DISL,ioos:station:DISL:MHPA:1,2008-02-05T16:00:00Z,30.6671,-87.9365,-0.9,18.38,2 
DISL,ioos:station:DISL:MHPA:1,2008-02-05T16:30:00Z,30.6671,-87.9365,-0.9,17.94,2 
DISL,ioos:station:DISL:MHPA:1,2008-02-05T17:00:00Z,30.6671,-87.9365,-0.9,17.18,2 
DISL,ioos:station:DISL:MHPA:1,2008-02-05T17:30:00Z,30.6671,-87.9365,-0.9,17.07,2 
DISL,ioos:station:DISL:MHPA:1,2008-02-05T18:00:00Z,30.6671,-87.9365,-0.9,17.33,2 
DISL,ioos:station:DISL:MHPA:1,2008-02-05T18:30:00Z,30.6671,-87.9365,-0.9,19.02,2 
DISL,ioos:station:DISL:MHPA:1,2008-02-05T19:00:00Z,30.6671,-87.9365,-0.9,18.4,2 
DISL,ioos:station:DISL:MHPA:1,2008-02-05T19:30:00Z,30.6671,-87.9365,-0.9,18.78,2 
DISL,ioos:station:DISL:MHPA:1,2008-02-05T20:00:00Z,30.6671,-87.9365,-0.9,19.94,2 
DISL,ioos:station:DISL:MHPA:1,2008-02-05T20:30:00Z,30.6671,-87.9365,-0.9,19.43,2 
DISL,ioos:station:DISL:MHPA:1,2008-02-05T21:00:00Z,30.6671,-87.9365,-0.9,19.31,2 
DISL,ioos:station:DISL:MHPA:1,2008-02-05T21:30:00Z,30.6671,-87.9365,-0.9,19.28,2 
DISL,ioos:station:DISL:MHPA:1,2008-02-05T22:00:00Z,30.6671,-87.9365,-0.9,19.48,2 
DISL,ioos:station:DISL:MHPA:1,2008-02-05T22:30:00Z,30.6671,-87.9365,-0.9,19.91,2 
DISL,ioos:station:DISL:MHPA:1,2008-02-05T23:00:00Z,30.6671,-87.9365,-0.9,19.61,2 
DISL,ioos:station:DISL:MHPA:1,2008-02-05T23:30:00Z,30.6671,-87.9365,-0.9,19.6,2 
DISL,ioos:station:DISL:MHPA:1,2008-02-06T00:00:00Z,30.6671,-87.9365,-0.9,19.46,2 
DISL,ioos:station:DISL:MHPA:1,2008-02-06T00:30:00Z,30.6671,-87.9365,-0.9,19.34,2 
DISL,ioos:station:DISL:MHPA:1,2008-02-06T01:00:00Z,30.6671,-87.9365,-0.9,19.29,2 
DISL,ioos:station:DISL:MHPA:1,2008-02-06T01:30:00Z,30.6671,-87.9365,-0.9,18.8,2 
DISL,ioos:station:DISL:MHPA:1,2008-02-06T02:00:00Z,30.6671,-87.9365,-0.9,18.42,2 
DISL,ioos:station:DISL:MHPA:1,2008-02-06T02:30:00Z,30.6671,-87.9365,-0.9,18.02,2 
DISL,ioos:station:DISL:MHPA:1,2008-02-06T03:00:00Z,30.6671,-87.9365,-0.9,18.24,2 
DISL,ioos:station:DISL:MHPA:1,2008-02-06T03:30:00Z,30.6671,-87.9365,-0.9,18.12,2 
DISL,ioos:station:DISL:MHPA:1,2008-02-06T04:00:00Z,30.6671,-87.9365,-0.9,19.13,2 
DISL,ioos:station:DISL:MHPA:1,2008-02-06T04:30:00Z,30.6671,-87.9365,-0.9,19.1,2 
DISL,ioos:station:DISL:MHPA:1,2008-02-06T05:00:00Z,30.6671,-87.9365,-0.9,19.2,2 
DISL,ioos:station:DISL:MHPA:1,2008-02-06T05:30:00Z,30.6671,-87.9365,-0.9,19.19,2 
DISL,ioos:station:DISL:MHPA:1,2008-02-06T06:00:00Z,30.6671,-87.9365,-0.9,19.11,2 
DISL,ioos:station:DISL:MHPA:1,2008-02-06T06:30:00Z,30.6671,-87.9365,-0.9,18.97,2 
DISL,ioos:station:DISL:MHPA:1,2008-02-06T07:00:00Z,30.6671,-87.9365,-0.9,18.92,2 
DISL,ioos:station:DISL:MHPA:1,2008-02-06T07:30:00Z,30.6671,-87.9365,-0.9,18.94,2 
DISL,ioos:station:DISL:MHPA:1,2008-02-06T08:00:00Z,30.6671,-87.9365,-0.9,19.04,2 
DISL,ioos:station:DISL:MHPA:1,2008-02-06T08:30:00Z,30.6671,-87.9365,-0.9,19.08,2 
DISL,ioos:station:DISL:MHPA:1,2008-02-06T09:00:00Z,30.6671,-87.9365,-0.9,18.95,2 
DISL,ioos:station:DISL:MHPA:1,2008-02-06T09:30:00Z,30.6671,-87.9365,-0.9,18.89,2 
DISL,ioos:station:DISL:MHPA:1,2008-02-06T10:00:00Z,30.6671,-87.9365,-0.9,18.97,2 
DISL,ioos:station:DISL:MHPA:1,2008-02-06T10:30:00Z,30.6671,-87.9365,-0.9,18.96,2 
DISL,ioos:station:DISL:MHPA:1,2008-02-06T11:00:00Z,30.6671,-87.9365,-0.9,18.96,2 
DISL,ioos:station:DISL:MHPA:1,2008-02-06T11:30:00Z,30.6671,-87.9365,-0.9,18.96,2 
DISL,ioos:station:DISL:MHPA:1,2008-02-06T12:00:00Z,30.6671,-87.9365,-0.9,18.92,2 
DISL,ioos:station:DISL:MHPA:1,2008-02-06T12:30:00Z,30.6671,-87.9365,-0.9,18.92,2 
DISL,ioos:station:DISL:MHPA:1,2008-02-06T13:00:00Z,30.6671,-87.9365,-0.9,18.93,2 
DISL,ioos:station:DISL:MHPA:1,2008-02-06T13:30:00Z,30.6671,-87.9365,-0.9,18.97,2 
DISL,ioos:station:DISL:MHPA:1,2008-02-06T14:00:00Z,30.6671,-87.9365,-0.9,18.86,2 
DISL,ioos:station:DISL:MHPA:1,2008-02-06T14:30:00Z,30.6671,-87.9365,-0.9,18.58,2 
DISL,ioos:station:DISL:MHPA:1,2008-02-06T15:00:00Z,30.6671,-87.9365,-0.9,18.52,2 
DISL,ioos:station:DISL:MHPA:1,2008-02-06T15:30:00Z,30.6671,-87.9365,-0.9,18.54,2 
DISL,ioos:station:DISL:MHPA:1,2008-02-06T16:00:00Z,30.6671,-87.9365,-0.9,18.49,2 
DISL,ioos:station:DISL:MHPA:1,2008-02-06T16:30:00Z,30.6671,-87.9365,-0.9,16.47,2 
DISL,ioos:station:DISL:MHPA:1,2008-02-06T17:00:00Z,30.6671,-87.9365,-0.9,16.39,2 
DISL,ioos:station:DISL:MHPA:1,2008-02-06T17:30:00Z,30.6671,-87.9365,-0.9,15.88,2 
DISL,ioos:station:DISL:MHPA:1,2008-02-06T18:00:00Z,30.6671,-87.9365,-0.9,16.51,2 
DISL,ioos:station:DISL:MHPA:1,2008-02-06T18:30:00Z,30.6671,-87.9365,-0.9,16.86,2 
DISL,ioos:station:DISL:MHPA:1,2008-02-06T19:00:00Z,30.6671,-87.9365,-0.9,16.87,2 
DISL,ioos:station:DISL:MHPA:1,2008-02-06T19:30:00Z,30.6671,-87.9365,-0.9,16.95,2 
DISL,ioos:station:DISL:MHPA:1,2008-02-06T20:00:00Z,30.6671,-87.9365,-0.9,17.37,2 
DISL,ioos:station:DISL:MHPA:1,2008-02-06T20:30:00Z,30.6671,-87.9365,-0.9,17.48,2 
DISL,ioos:station:DISL:MHPA:1,2008-02-06T21:00:00Z,30.6671,-87.9365,-0.9,17.56,2 
DISL,ioos:station:DISL:MHPA:1,2008-02-06T21:30:00Z,30.6671,-87.9365,-0.9,17.67,2 
DISL,ioos:station:DISL:MHPA:1,2008-02-06T22:00:00Z,30.6671,-87.9365,-0.9,17.79,2 
DISL,ioos:station:DISL:MHPA:1,2008-02-06T22:30:00Z,30.6671,-87.9365,-0.9,17.89,2 
DISL,ioos:station:DISL:MHPA:1,2008-02-06T23:00:00Z,30.6671,-87.9365,-0.9,18.25,2 
DISL,ioos:station:DISL:MHPA:1,2008-02-06T23:30:00Z,30.6671,-87.9365,-0.9,18.01,2 
DISL,ioos:station:DISL:MHPA:1,2008-02-07T00:00:00Z,30.6671,-87.9365,-0.9,17.86,2 
DISL,ioos:station:DISL:MHPA:1,2008-02-07T00:30:00Z,30.6671,-87.9365,-0.9,17.74,2 
DISL,ioos:station:DISL:MHPA:1,2008-02-07T01:00:00Z,30.6671,-87.9365,-0.9,17.69,2 
DISL,ioos:station:DISL:MHPA:1,2008-02-07T01:30:00Z,30.6671,-87.9365,-0.9,17.63,2 